Date String (YYYY-MM-DD hh:mm:ss) UTC,Instrument flags,Ambient pressure (hPa),Sample flow (lpm),Bypass flow (lpm),Sample temperature (°C),Ambient temperature (°C),ASC tube jacket temperature (°C),LED temperature (°C),Box temperature (°C),Sample RH (%),Span deviation,Mass concentration (μg/m³),Mass concentration (μg/m³),Mass concentration (μg/m³)
DateTimeUTC,F1_M11,P_M11,Q1_M11,Q2_M11,T1_M11,T2_M11,T3_M11,T4_M11,T5_M11,U1_M11,ZSPAN_M11,X0_M11,X2_M11,X1_M11
2022-02-11 04:00:00,,0818.4,4.99,0.00,23.9,22.6,00.0,32.9,25.6,11.3,0000.0,0001.73,0000.78,0000.49
2022-02-11 04:01:00,,0818.5,5.02,0.00,23.9,22.6,00.0,32.9,25.6,11.3,0000.0,0001.86,0000.78,0000.49
2022-02-11 04:02:00,,0818.4,5.01,0.00,23.8,22.6,00.0,32.9,25.5,11.2,0000.0,0001.71,0000.74,0000.49
2022-02-11 04:03:00,,0818.4,5.00,0.00,23.8,22.6,00.0,32.9,25.5,11.1,0000.0,0001.81,0000.79,0000.50
2022-02-11 04:04:00,,0818.7,4.99,0.00,23.8,22.6,00.0,32.9,25.5,11.4,0000.0,0001.89,0000.81,0000.49
2022-02-11 04:05:00,,0818.6,5.01,0.00,23.8,22.6,00.0,32.8,25.5,11.5,0000.0,0002.62,0000.83,0000.49
2022-02-11 04:06:00,,0818.4,5.00,0.00,23.8,22.6,00.0,32.8,25.5,11.4,0000.0,0002.63,0000.84,0000.49
2022-02-11 04:07:00,,0818.5,5.00,0.00,23.7,22.6,00.0,32.8,25.5,11.2,0000.0,0002.64,0000.84,0000.49
2022-02-11 04:08:00,,0818.6,5.01,0.00,23.7,22.5,00.0,32.8,25.5,11.2,0000.0,0002.82,0000.81,0000.49
2022-02-11 04:09:00,,0818.5,4.99,0.00,23.7,22.5,00.0,32.8,25.5,11.1,0000.0,0003.21,0000.78,0000.48
2022-02-11 04:10:00,,0818.6,5.01,0.00,23.7,22.5,00.0,32.8,25.4,11.2,0000.0,0004.15,0000.79,0000.49
2022-02-11 04:11:00,,0818.5,4.99,0.00,23.7,22.5,00.0,32.8,25.4,11.1,0000.0,0004.59,0000.81,0000.49
2022-02-11 04:12:00,,0818.5,5.00,0.00,23.7,22.5,00.0,32.7,25.4,10.8,0000.0,0004.40,0000.81,0000.48
2022-02-11 04:13:00,,0818.7,5.01,0.00,23.7,22.5,00.0,32.7,25.4,10.9,0000.0,0004.30,0000.77,0000.48
2022-02-11 04:14:00,,0818.7,5.00,0.00,23.7,22.5,00.0,32.7,25.4,11.1,0000.0,0004.30,0000.74,0000.47
2022-02-11 04:15:00,,0818.7,4.98,0.00,23.6,22.5,00.0,32.7,25.3,10.9,0000.0,0004.25,0000.72,0000.47
2022-02-11 04:16:00,,0818.6,5.00,0.00,23.6,22.5,00.0,32.7,25.3,11.1,0000.0,0003.59,0000.71,0000.47
2022-02-11 04:17:00,,0818.7,5.00,0.00,23.6,22.5,00.0,32.7,25.3,11.0,0000.0,0003.62,0000.72,0000.47
2022-02-11 04:18:00,,0818.8,5.01,0.00,23.6,22.5,00.0,32.7,25.3,11.1,0000.0,0003.70,0000.71,0000.47
2022-02-11 04:19:00,,0818.8,5.00,0.00,23.6,22.5,00.0,32.7,25.3,10.9,0000.0,0003.45,0000.71,0000.46
2022-02-11 04:20:00,,0818.9,5.00,0.00,23.6,22.5,00.0,32.6,25.3,10.7,0000.0,0002.92,0000.71,0000.47
2022-02-11 04:21:00,,0818.8,5.01,0.00,23.5,22.5,00.0,32.6,25.2,10.9,0000.0,0002.11,0000.73,0000.47
2022-02-11 04:22:00,,0818.8,4.99,0.00,23.5,22.5,00.0,32.6,25.2,10.6,0000.0,0001.63,0000.73,0000.46
2022-02-11 04:23:00,,0818.9,5.01,0.00,23.5,22.6,00.0,32.6,25.2,10.5,0000.0,0002.21,0000.72,0000.46
2022-02-11 04:24:00,,0818.8,5.00,0.00,23.5,22.6,00.0,32.6,25.2,10.5,0000.0,0002.52,0000.77,0000.46
2022-02-11 04:25:00,,0818.9,4.99,0.00,23.5,22.5,00.0,32.6,25.2,10.5,0000.0,0002.48,0000.78,0000.46
2022-02-11 04:26:00,,0819.0,5.01,0.00,23.5,22.5,00.0,32.6,25.2,10.4,0000.0,0002.46,0000.78,0000.45
2022-02-11 04:27:00,,0819.0,4.98,0.00,23.5,22.5,00.0,32.6,25.1,10.6,0000.0,0002.39,0000.76,0000.45
2022-02-11 04:28:00,,0818.9,5.02,0.00,23.5,22.6,00.0,32.6,25.1,10.4,0000.0,0002.34,0000.74,0000.45
2022-02-11 04:29:00,,0819.0,4.99,0.00,23.5,22.5,00.0,32.6,25.0,10.3,0000.0,0002.29,0000.76,0000.45
2022-02-11 04:30:00,,0818.9,5.01,0.00,23.4,22.5,00.0,32.6,25.1,10.4,0000.0,0002.35,0000.78,0000.44
2022-02-11 04:31:00,,0818.9,5.00,0.00,23.5,22.5,00.0,32.6,25.1,10.4,0000.0,0002.41,0000.80,0000.44
2022-02-11 04:32:00,,0818.9,5.00,0.00,23.5,22.6,00.0,32.5,25.2,10.1,0000.0,0002.38,0000.78,0000.44
2022-02-11 04:33:00,,0818.9,5.01,0.00,23.5,22.5,00.0,32.5,25.2,10.2,0000.0,0002.33,0000.77,0000.43
2022-02-11 04:34:00,,0818.9,4.98,0.00,23.5,22.5,00.0,32.5,25.2,10.1,0000.0,0001.67,0000.77,0000.44
2022-02-11 04:35:00,,0818.9,5.01,0.00,23.5,22.5,00.0,32.5,25.2,10.2,0000.0,0001.54,0000.75,0000.44
2022-02-11 04:36:00,,0819.0,5.00,0.00,23.4,22.5,00.0,32.5,25.1,10.2,0000.0,0001.46,0000.73,0000.43
2022-02-11 04:37:00,,0819.1,4.99,0.00,23.4,22.4,00.0,32.5,25.1,10.1,0000.0,0001.41,0000.72,0000.43
2022-02-11 04:38:00,,0819.0,5.00,0.00,23.4,22.4,00.0,32.5,25.1,10.2,0000.0,0001.45,0000.74,0000.43
2022-02-11 04:39:00,,0818.9,4.99,0.00,23.4,22.4,00.0,32.5,25.1,10.2,0000.0,0001.60,0000.74,0000.44
2022-02-11 04:40:00,,0818.9,5.01,0.00,23.4,22.4,00.0,32.5,25.2,10.1,0000.0,0001.79,0000.73,0000.43
2022-02-11 04:41:00,,0818.9,4.99,0.00,23.4,22.4,00.0,32.5,25.2,10.0,0000.0,0001.88,0000.76,0000.44
2022-02-11 04:42:00,,0819.0,5.00,0.00,23.4,22.4,00.0,32.5,25.1,10.0,0000.0,0001.80,0000.74,0000.43
2022-02-11 04:43:00,,0818.8,5.00,0.00,23.4,22.4,00.0,32.5,25.1,10.1,0000.0,0001.73,0000.73,0000.43
2022-02-11 04:44:00,,0818.7,4.98,0.00,23.3,22.4,00.0,32.4,25.1,10.0,0000.0,0001.73,0000.72,0000.43
2022-02-11 04:45:00,,0818.7,5.02,0.00,23.3,22.3,00.0,32.4,25.1,09.9,0000.0,0001.80,0000.74,0000.43
2022-02-11 04:46:00,,0818.7,5.00,0.00,23.3,22.2,00.0,32.4,25.1,10.0,0000.0,0001.66,0000.71,0000.43
2022-02-11 04:47:00,,0818.8,5.01,0.00,23.3,22.2,00.0,32.4,25.0,10.0,0000.0,0001.74,0000.74,0000.45
2022-02-11 04:48:00,,0818.9,5.00,0.00,23.3,22.2,00.0,32.4,25.1,10.0,0000.0,0001.85,0000.77,0000.45
2022-02-11 04:49:00,,0818.8,5.00,0.00,23.3,22.2,00.0,32.4,25.1,10.2,0000.0,0002.34,0000.76,0000.45
2022-02-11 04:50:00,,0818.7,5.00,0.00,23.3,22.2,00.0,32.4,25.1,10.1,0000.0,0002.36,0000.75,0000.44
2022-02-11 04:51:00,,0818.4,5.01,0.00,23.3,22.1,00.0,32.3,25.0,10.0,0000.0,0002.27,0000.75,0000.44
2022-02-11 04:52:00,,0818.7,5.01,0.00,23.3,22.1,00.0,32.3,25.0,10.0,0000.0,0002.16,0000.71,0000.45
2022-02-11 04:53:00,,0818.8,4.99,0.00,23.3,22.1,00.0,32.3,25.0,10.1,0000.0,0002.23,0000.71,0000.46
2022-02-11 04:54:00,,0818.8,4.99,0.00,23.2,22.1,00.0,32.3,25.0,10.2,0000.0,0002.24,0000.72,0000.46
2022-02-11 04:55:00,,0818.7,5.01,0.00,23.2,22.1,00.0,32.3,25.0,10.0,0000.0,0002.17,0000.72,0000.45
2022-02-11 04:56:00,,0818.7,4.99,0.00,23.2,22.0,00.0,32.3,24.9,10.1,0000.0,0002.26,0000.69,0000.45
2022-02-11 04:57:00,,0818.7,5.01,0.00,23.2,22.1,00.0,32.3,24.9,10.2,0000.0,0003.50,0000.71,0000.45
2022-02-11 04:58:00,,0818.8,4.99,0.00,23.2,22.0,00.0,32.2,24.9,10.1,0000.0,0003.92,0000.70,0000.45
2022-02-11 04:59:00,,0818.6,5.00,0.00,23.2,22.0,00.0,32.2,24.9,10.3,0000.0,0003.83,0000.67,0000.44
